Theta_e
328 327 328 332 339 338 339 335 333 333 333 332 332 333 333 332 336 344 341 339 339 341 342 340 338 338 337 335 333 329 331 331 334 330 329 333 332 330 328 327 328 327 327 327 330 329 331 329 331
327 327 330 335 339 341 339 335 335 333 333 332 332 334 332 334 334 339 340 340 339 341 341 342 338 338 336 335 331 329 331 331 329 328 329 329 330 329 328 327 326 327 327 329 328 328 327 330 331
328 327 335 336 337 340 339 335 333 333 331 332 333 333 331 333 334 336 339 340 339 340 341 341 338 338 336 332 329 328 330 330 328 331 332 329 326 330 327 326 326 326 327 326 326 328 325 330 331
329 332 333 338 338 335 336 334 332 332 332 332 332 332 335 336 334 337 339 339 339 340 341 339 338 336 332 329 328 328 329 328 330 331 328 330 329 327 327 326 325 325 326 325 326 324 324 322 331
332 333 337 337 336 333 335 333 332 333 333 333 332 332 335 336 336 338 339 339 339 340 340 339 338 333 330 328 327 329 329 329 330 329 326 329 330 327 326 325 325 324 324 324 325 325 322 323 328
335 333 337 338 335 333 335 333 333 332 332 332 333 332 335 336 337 338 339 339 339 339 340 339 336 333 330 328 326 328 327 329 330 329 327 330 331 327 325 325 324 324 324 324 324 322 322 323 325
335 336 337 336 335 334 334 333 333 333 333 333 332 332 334 336 337 338 339 339 339 339 339 339 337 334 330 328 327 328 327 327 327 326 328 330 331 329 327 325 324 324 324 324 323 318 318 322 322
331 334 335 334 334 335 330 333 330 333 334 332 332 332 335 337 338 338 338 339 339 338 339 338 337 336 334 332 327 326 326 327 325 325 326 328 330 329 327 325 325 324 323 324 323 319 315 314 317
329 335 336 334 334 333 329 331 329 330 333 332 332 332 334 336 338 338 338 338 338 337 337 338 337 336 336 335 333 325 326 328 326 327 326 326 331 331 328 326 325 324 323 323 323 323 317 315 315
328 334 335 332 330 330 329 330 330 331 332 332 332 333 333 336 338 338 338 337 338 338 337 337 338 337 336 335 334 331 329 329 329 328 328 326 326 327 327 327 325 324 323 323 324 325 323 320 320
327 327 332 330 326 325 327 328 327 330 331 330 330 330 330 332 335 336 337 336 337 337 337 337 336 337 336 335 334 333 332 330 330 330 329 328 326 326 326 325 325 324 324 324 325 326 325 324 323
326 326 327 327 323 324 326 326 326 326 328 325 327 324 325 326 329 331 332 333 335 336 337 337 337 336 336 336 335 334 333 332 331 331 330 329 328 327 326 326 325 325 325 325 326 326 325 324 324
328 326 326 325 325 325 325 326 328 327 326 324 324 323 325 326 327 328 330 331 333 334 334 335 337 337 335 336 336 335 334 333 333 332 331 330 329 328 327 326 325 325 325 325 324 324 324 324 323
326 326 327 326 327 327 327 327 326 327 327 326 325 325 325 324 324 324 327 329 330 330 331 332 334 336 336 335 335 336 335 335 334 333 332 331 329 329 328 328 326 325 324 324 323 323 323 323 323
326 328 327 327 327 327 326 328 328 326 326 326 326 326 325 324 324 324 325 325 325 325 326 327 330 332 335 336 334 335 336 335 334 334 333 332 331 330 329 328 328 326 325 324 324 323 323 323 323
328 326 326 325 326 327 327 325 323 325 326 326 325 325 325 325 325 324 324 324 324 323 323 322 323 328 331 333 336 335 333 335 334 334 334 333 332 331 330 329 329 328 327 326 325 325 323 323 323
326 325 325 322 325 326 327 324 322 324 325 325 324 325 324 324 323 323 322 321 322 322 322 321 321 323 328 331 333 335 336 335 333 332 332 334 333 331 331 330 330 329 328 328 327 326 325 324 324
325 326 324 323 324 326 325 325 323 324 324 325 324 323 323 323 322 321 322 322 320 319 319 320 320 321 324 328 331 333 335 336 335 332 330 331 333 332 331 331 330 329 329 328 328 327 326 325 325
322 322 324 323 322 324 325 324 322 321 321 321 322 323 322 322 321 322 321 319 318 317 317 317 318 318 321 325 329 332 334 334 334 332 330 330 331 333 331 330 330 330 328 329 329 328 328 327 326
324 325 324 322 322 325 324 323 321 321 322 322 322 322 322 322 321 319 318 315 315 315 315 316 317 318 319 322 327 330 331 333 333 331 330 329 329 330 331 330 329 329 329 328 328 327 327 326 326
324 323 322 322 322 324 325 325 322 321 322 321 321 322 321 319 319 318 315 314 313 313 313 315 318 317 318 321 326 328 329 330 331 332 332 331 329 328 329 329 329 329 329 328 327 327 327 325 325
325 322 322 323 324 327 320 322 320 319 319 318 319 319 318 318 317 314 313 312 310 310 312 314 316 320 323 323 326 327 329 329 330 330 330 330 330 329 329 329 328 329 329 329 328 327 327 327 326
321 320 324 324 325 324 323 323 319 318 317 317 317 317 317 316 314 312 310 308 307 307 308 311 312 312 314 322 326 328 328 329 329 328 328 328 329 329 329 328 329 329 328 328 328 327 327 326 326
319 321 322 321 322 325 320 320 318 318 318 318 317 316 314 313 312 309 307 306 305 304 305 306 307 307 306 308 312 317 319 319 319 319 319 319 320 320 319 322 323 325 326 326 325 325 325 325 325
320 321 323 323 325 322 316 318 318 317 318 317 318 317 312 311 310 308 306 304 302 302 302 302 302 302 303 302 303 305 305 305 304 306 306 306 306 304 304 306 309 311 313 319 320 322 324 324 324
322 321 317 316 321 319 318 320 318 317 317 317 315 315 311 310 308 305 303 301 300 299 299 299 299 299 299 299 299 299 300 299 299 298 299 298 298 298 299 299 301 302 303 305 307 312 316 318 320
321 322 318 320 321 321 318 319 318 318 315 314 313 312 312 310 306 304 301 299 297 296 296 296 296 296 295 296 296 295 294 294 294 293 293 294 293 294 295 295 297 298 298 298 299 301 303 304 307
318 318 322 321 324 323 317 315 316 320 318 315 313 312 311 308 304 302 300 297 295 294 294 294 294 294 293 293 293 292 290 290 290 290 290 290 290 290 291 292 294 295 295 294 295 297 299 297 297
319 320 320 320 321 319 319 316 315 315 315 315 314 312 310 306 304 301 299 296 294 293 292 292 292 293 291 290 291 288 288 288 288 287 287 287 288 288 288 290 291 291 291 291 293 292 292 294 294
318 318 320 322 324 322 321 321 314 314 314 316 314 311 308 306 303 300 298 297 293 292 291 290 290 291 288 288 288 286 286 286 286 285 285 285 286 286 286 287 288 288 288 289 289 289 289 290 291
Wind_Speed
23 15 7 5 5 1 6 5 4 4 5 5 5 7 9 10 10 4 3 5 9 12 14 13 13 10 6 4 4 7 8 6 6 4 3 5 6 7 6 6 6 4 3 5 6 7 7 4 6
21 13 6 3 4 5 7 4 8 8 8 4 2 3 3 10 9 7 8 5 11 11 12 13 13 9 5 5 5 9 10 8 3 1 2 4 4 4 4 4 4 4 5 6 4 6 6 5 7
17 7 4 2 3 6 6 4 9 7 3 4 2 3 4 6 7 4 6 8 11 11 12 14 13 10 8 6 7 9 11 9 6 5 6 3 3 5 4 3 2 2 2 4 1 3 3 5 6
9 4 4 5 8 7 9 7 7 8 4 2 2 6 6 7 3 4 8 10 11 11 11 12 12 7 5 5 7 10 12 12 8 7 2 4 5 5 4 2 2 2 1 2 1 4 2 2 3
4 3 2 3 5 6 6 7 3 5 5 7 4 6 8 6 6 7 8 9 10 10 10 10 10 7 6 6 7 9 8 13 9 11 5 8 7 2 7 5 4 3 2 2 3 5 3 2 1
3 2 5 7 7 6 5 4 3 5 4 6 3 5 7 6 5 6 8 9 9 9 9 9 9 7 7 6 8 9 8 12 8 8 9 9 12 8 4 5 5 5 4 3 4 4 5 4 4
5 5 3 2 8 7 6 3 2 3 4 7 2 6 6 8 5 6 8 8 8 8 8 8 7 8 8 8 9 10 10 11 12 11 8 6 12 10 7 7 10 7 7 7 6 6 6 6 6
5 4 4 2 8 5 4 4 2 3 6 2 4 4 9 6 5 6 7 7 7 6 7 8 8 8 8 8 10 11 10 10 11 12 12 8 9 10 7 7 10 11 9 10 8 8 7 8 9
4 5 6 3 4 7 6 4 3 1 2 1 3 7 7 6 6 7 6 6 6 6 8 9 10 9 10 9 10 12 14 13 13 12 14 13 8 12 12 11 11 12 13 12 11 10 10 10 10
4 5 3 5 3 1 3 2 2 4 5 5 6 7 6 6 5 5 6 7 9 9 10 11 10 10 10 10 10 11 12 13 13 12 12 14 13 12 12 13 13 16 15 15 15 13 11 12 10
2 9 4 1 3 3 1 2 1 3 5 3 3 7 5 3 3 4 6 7 7 9 10 11 13 13 12 12 11 12 12 13 14 15 14 14 13 14 13 14 13 16 16 16 15 14 13 12 11
7 6 4 2 1 1 4 2 4 5 4 3 3 4 1 1 3 5 6 7 8 9 10 11 13 15 16 15 14 14 15 15 15 15 17 16 15 15 14 14 13 14 13 14 15 14 15 14 17
11 8 6 4 4 4 2 8 8 7 5 5 3 4 5 4 4 5 7 8 8 10 10 12 14 17 17 17 17 16 16 18 17 17 17 18 17 16 14 15 15 14 13 14 16 17 16 17 16
2 11 11 6 8 6 6 11 3 7 8 6 5 8 6 6 7 7 8 8 8 9 11 12 15 17 17 19 20 19 18 18 19 20 19 19 19 17 16 15 15 15 15 15 16 16 17 18 18
5 9 10 11 11 12 4 15 18 14 13 12 13 11 10 10 9 11 11 11 12 14 14 13 14 16 20 21 22 23 22 20 21 21 20 20 20 19 18 17 16 16 15 16 16 17 18 19 19
10 13 16 15 15 7 6 19 11 6 8 13 10 8 9 11 14 15 16 19 20 20 19 19 17 17 19 22 22 21 23 23 23 20 20 21 22 21 19 19 18 16 16 15 15 16 17 19 19
13 15 18 19 7 11 11 15 12 5 7 13 12 10 12 15 19 22 22 22 21 18 18 19 17 20 20 21 23 23 22 22 23 22 22 20 21 22 23 22 21 19 18 18 18 18 18 19 20
17 17 18 14 9 12 17 18 16 9 11 13 16 17 16 17 21 22 20 16 13 15 17 18 18 18 17 19 19 21 22 23 23 26 24 21 21 21 22 23 21 21 21 21 21 21 20 21 21
17 13 17 13 11 5 15 18 19 17 18 18 17 17 18 20 22 21 16 8 12 15 16 17 18 18 17 17 19 19 20 21 21 22 24 24 22 21 22 23 21 22 24 24 22 22 22 22 21
18 17 15 11 3 4 15 21 20 20 19 19 19 19 20 19 16 13 9 11 12 14 14 15 15 16 16 17 18 18 17 18 18 20 24 26 25 23 22 22 22 20 21 23 22 21 21 21 20
20 20 16 15 11 13 16 24 23 24 24 21 20 20 18 15 13 8 7 7 9 11 13 14 14 13 13 13 14 15 15 14 11 13 14 15 15 18 23 24 21 20 19 20 21 21 21 18 15
19 16 15 13 11 10 5 8 13 7 10 13 15 14 15 12 2 2 4 5 8 10 10 11 11 9 7 8 12 14 14 13 11 9 8 7 8 12 14 17 18 19 20 21 22 23 21 22 20
13 9 9 11 13 15 18 11 10 11 11 10 9 11 11 3 1 2 4 5 8 10 11 11 11 13 12 7 1 7 10 5 2 2 2 2 2 3 7 11 15 18 19 21 23 24 23 26 24
7 5 4 5 8 12 17 14 15 16 18 18 3 1 4 3 3 4 4 4 7 9 10 12 13 15 17 18 17 13 12 11 11 10 10 10 9 7 5 4 5 6 12 16 17 18 20 22 23
17 12 5 6 7 10 4 12 22 1 1 4 5 2 5 5 4 4 3 5 7 9 11 11 13 16 16 19 20 19 18 17 16 13 12 11 11 11 11 10 9 8 10 9 10 13 16 18 20
21 17 7 8 9 9 13 11 12 9 12 4 3 5 8 7 6 5 4 4 6 7 9 11 12 14 15 16 17 17 15 14 14 14 12 12 11 12 13 13 12 12 11 10 10 9 12 14 15
14 17 17 13 1 5 10 9 11 7 9 8 8 7 8 7 6 6 6 5 5 7 9 10 10 12 14 14 15 16 15 15 14 13 12 11 12 13 14 14 13 14 14 15 16 15 14 17 16
12 8 9 4 7 12 14 18 13 15 16 11 11 12 10 8 8 7 7 6 5 6 7 9 10 11 12 13 13 14 14 14 13 13 15 14 14 15 15 15 15 15 16 18 19 19 17 18 21
12 10 8 7 9 7 13 14 12 10 13 14 14 12 11 10 10 9 9 8 6 5 6 7 9 9 11 11 12 13 13 13 13 14 14 14 14 15 16 17 17 18 20 21 20 20 20 20 20
18 21 18 7 9 5 5 12 4 3 6 9 11 12 12 13 12 11 11 10 8 6 5 6 7 8 9 10 11 12 12 13 13 14 14 14 14 15 16 15 16 17 17 19 21 20 21 21 22
Wind_Direction
338 328 299 254 238 217 98 83 84 71 98 46 32 0 24 36 12 34 117 117 136 140 147 151 154 145 155 154 131 139 138 125 141 103 85 106 101 113 106 109 109 106 111 127 97 64 62 99 112
333 328 242 283 260 177 86 103 84 65 78 67 70 285 38 72 51 93 122 128 143 145 149 155 159 158 170 170 150 153 156 149 173 168 149 106 113 126 124 110 109 109 108 119 81 59 51 95 143
323 291 279 285 280 62 102 93 100 107 81 25 121 21 11 43 62 79 103 140 148 148 151 167 167 177 177 166 161 165 173 159 157 199 169 147 109 145 144 128 113 95 140 154 67 40 48 63 146
331 216 210 262 96 62 100 99 109 134 119 66 356 75 108 46 49 51 136 146 153 153 154 177 179 191 176 173 171 170 179 172 188 161 204 180 159 155 155 172 178 154 192 218 243 296 300 354 133
286 253 229 129 98 112 90 98 106 103 98 80 338 93 74 79 85 108 134 150 158 158 163 172 189 186 183 178 175 170 198 170 184 165 182 197 186 228 183 188 221 217 236 234 257 258 260 242 138
278 279 231 182 125 127 116 123 143 88 94 101 106 96 74 101 106 123 145 155 162 169 173 183 196 196 194 190 180 176 193 192 192 180 191 194 193 184 196 217 223 235 243 261 277 269 261 260 247
332 288 23 70 140 151 123 141 176 84 116 75 34 74 95 93 104 131 151 157 164 179 187 191 195 203 206 205 200 196 202 198 211 211 232 225 214 199 201 211 207 224 232 262 269 279 271 270 274
311 276 210 192 183 122 122 162 48 297 82 91 346 46 80 78 119 136 151 162 167 195 206 210 210 207 212 215 212 210 206 207 208 198 217 225 216 205 212 212 240 221 238 246 270 274 265 262 263
298 254 219 179 201 115 139 190 109 63 166 123 74 52 89 110 136 145 162 182 199 215 219 223 225 225 223 221 228 219 215 218 217 225 221 230 209 214 221 223 227 234 240 247 255 272 267 259 261
275 266 272 32 23 101 115 256 125 217 173 161 151 109 99 127 153 169 200 213 223 228 229 226 226 233 234 231 227 222 222 221 223 222 223 223 229 230 230 233 232 233 233 242 252 260 271 268 258
173 253 65 144 33 1 76 216 230 243 216 72 97 116 108 116 180 211 227 242 245 238 233 232 229 226 233 236 235 230 227 225 225 226 226 227 232 235 240 236 241 240 239 241 248 242 244 251 250
242 242 249 92 82 247 226 349 241 248 74 95 107 98 127 239 225 232 242 248 239 241 243 236 234 230 227 229 232 236 233 229 227 227 225 225 229 233 234 236 240 236 234 233 233 232 236 247 247
236 244 223 185 194 236 273 252 262 251 239 194 220 229 253 226 245 252 249 249 246 248 248 244 237 235 234 230 229 233 234 234 233 231 227 224 227 230 233 236 238 239 239 238 237 240 244 247 249
317 236 230 217 229 221 240 251 192 231 261 232 223 247 236 245 255 261 252 254 253 260 260 256 245 241 239 235 232 231 234 234 233 233 232 228 228 231 233 238 239 241 241 243 244 244 246 246 247
217 219 227 236 238 242 252 250 245 242 249 244 267 253 247 254 252 251 262 275 280 280 281 275 262 249 239 238 239 234 235 234 233 231 231 230 229 232 235 237 238 240 243 247 250 252 253 255 252
221 233 247 230 227 208 222 260 258 213 227 244 238 238 245 264 264 267 271 277 281 283 284 283 270 254 244 238 236 239 242 237 234 232 232 230 230 231 235 238 240 241 242 243 246 251 254 259 260
219 237 230 243 214 231 217 264 259 309 226 250 252 253 263 270 272 273 276 279 283 290 289 279 275 264 251 245 239 237 238 236 237 233 232 230 231 230 230 234 237 238 239 241 240 243 243 249 255
228 229 246 235 195 225 242 250 258 199 220 246 262 267 269 270 271 279 285 293 310 297 286 282 277 270 257 247 241 239 238 237 237 240 234 232 232 233 233 236 238 236 235 237 238 240 242 245 249
255 255 246 246 241 257 257 262 264 262 264 261 260 261 261 264 274 283 288 315 315 300 297 290 286 278 264 244 234 233 233 234 236 239 241 239 234 237 236 237 239 236 235 236 239 246 245 244 247
237 245 244 259 248 270 270 268 268 264 256 255 256 260 263 267 273 287 346 331 317 313 313 305 292 280 267 253 242 236 237 241 239 246 245 247 248 237 238 239 241 243 243 244 245 248 251 254 249
229 234 240 248 259 233 271 275 255 251 246 246 249 255 262 271 284 301 327 326 334 337 336 327 315 294 273 256 241 234 235 243 244 235 236 248 252 246 240 242 246 250 251 249 250 251 244 246 252
236 227 243 259 262 255 163 288 297 271 253 238 234 248 259 260 15 2 345 358 4 2 357 356 354 348 318 264 236 232 229 235 241 237 231 236 243 248 250 250 252 253 258 259 261 258 260 254 250
247 248 219 239 251 269 253 268 278 241 249 240 230 249 242 81 70 84 48 33 23 20 21 24 28 28 19 28 300 243 235 274 336 350 275 294 264 260 261 261 262 261 264 268 271 269 262 260 256
220 169 193 245 259 254 246 239 262 248 235 237 220 158 101 129 123 100 74 52 39 33 38 41 45 45 44 50 54 62 67 65 66 56 63 64 65 61 41 2 324 318 288 290 287 287 282 276 271
201 189 197 217 212 246 206 217 249 104 25 181 234 275 157 171 169 131 92 60 46 41 45 49 52 54 53 55 58 59 65 66 63 53 46 44 38 27 14 12 5 354 331 320 341 316 295 285 281
196 191 187 218 224 261 198 238 238 269 243 215 208 175 176 175 159 143 118 98 77 60 54 56 56 57 58 62 61 59 58 61 59 52 48 43 35 24 14 15 13 10 5 359 342 327 331 328 321
192 222 228 280 317 277 237 229 259 214 187 198 218 209 205 179 166 164 141 125 100 79 63 60 61 61 57 59 63 60 57 57 55 48 47 40 32 20 16 14 12 9 10 6 8 357 353 346 342
228 206 207 202 224 236 243 252 251 185 216 210 224 219 196 186 177 163 151 132 105 89 79 71 63 61 59 58 59 57 53 51 51 46 41 32 26 21 17 15 12 12 11 11 13 7 2 358 352
199 222 223 222 236 246 259 256 249 257 218 199 214 208 195 194 188 174 160 145 127 104 83 74 70 61 55 57 55 52 48 47 46 48 37 31 24 21 20 17 14 12 13 13 10 6 359 358 354
212 214 209 212 196 219 268 260 152 69 268 185 194 193 191 191 188 180 172 167 153 129 104 77 73 73 52 54 58 52 50 42 39 36 35 30 29 24 19 20 21 16 15 19 10 3 358 354 354